SCP
-0 -0 -0 -0 -0 -0 -0 -0 -0 -0 0 0 0 0 0 0 0 0 0 0 0 0 0 0 0 0 0 0 0 0 0 0 0 0 0 0 0 0 0 0 0 0 0 -0 -0 0 0
-0 -0 -0 -0 -0 -0 -0 -0 -0 -0 -0 0 0 0 0 0 0 0 0 0 0 0 0 0 0 0 0 0 0 0 0 0 0 0 0 0 0 0 0 0 0 0 0 0 0 0 0
-0 -0 -0 -0 -0 -0 -0 -0 -0 -0 -0 0 0 0 0 0 0 0 0 0 0 0 0 0 0 0 0 0 0 0 0 0 0 0 0 0 0 0 0 0 0 0 0 0 0 0 0
-0 -0 -0 -0 -0 -0 -0 -0 -0 -0 -0 -0 -0 0 0 0 0 0 0 0 0 0 0 0 0 0 0 0 0 -0 0 0 0 0 0 0 0 0 0 0 0 0 0 0 0 0 0
-0 -0 -0 -0 -0 -0 -0 -0 -0 -0 -0 -0 -0 0 0 0 0 0 0 0 0 0 0 0 0 0 0 0 0 -0 0 0 0 0 0 0 0 0 0 0 0 0 0 0 0 0 0
-0 -0 -0 -0 -0 -0 -0 -0 -0 -0 -0 -0 -0 0 0 0 0 0 0 0 0 0 0 0 0 0 0 0 -0 0 0 0 0 0 0 0 0 0 0 0 -0 0 0 0 0 -0 0
-0 -0 -0 -0 -0 -0 -0 -0 -0 -0 -0 0 0 0 0 0 0 0 0 0 0 0 0 0 0 0 0 0 0 0 0 0 0 0 0 0 0 0 0 0 0 0 0 0 0 0 0
-0 -0 -0 -0 -0 -0 -0 -0 -0 -0 -0 0 0 0 0 0 0 0 0 0 0 0 0 0 0 0 0 0 0 0 0 0 0 0 0 0 0 0 0 0 0 0 0 0 0 -0 -0
-0 -0 -0 -0 -0 -0 -0 -0 -0 -0 0 0 0 0 0 0 0 0 0 0 0 0 0 0 0 0 0 0 0 0 0 0 0 0 0 0 0 0 0 0 0 0 0 0 0 0 -0
-0 -0 -0 -0 -0 -0 -0 -0 -0 -0 0 0 0 0 0 0 0 0 0 0 0 0 0 0 0 0 0 0 0 0 0 0 0 0 0 0 0 0 0 0 0 0 0 0 0 0 0
-0 -0 -0 -0 -0 -0 -0 -0 -0 -0 0 0 0 0 0 0 0 0 0 0 0 0 0 0 0 0 0 0 0 0 0 0 0 0 0 0 0 0 0 0 0 0 0 0 0 0 0
-0 -0 -0 -0 -0 -0 -0 -0 -0 0 0 0 0 0 0 0 0 0 0 0 0 0 0 0 -0 0 0 0 0 0 0 0 0 0 0 -0 0 0 0 0 0 0 0 0 0 0 0
-0 -0 -0 -0 -0 -0 -0 -0 -0 0 0 0 0 0 0 0 0 0 0 0 0 0 0 0 0 0 0 0 0 0 0 0 0 0 0 0 0 0 0 0 0 0 0 0 0 0 0
-0 -0 -0 -0 -0 -0 -0 -0 -0 0 0 0 0 0 0 0 0 0 0 0 0 0 0 0 0 0 0 0 0 0 0 0 0 0 0 0 0 0 0 0 0 0 0 0 0 0 0
-0 -0 -0 -0 -0 -0 -0 -0 -0 0 0 0 0 0 0 0 0 0 0 0 0 0 0 0 0 0 0 0 0 0 0 0 0 0 0 0 0 0 0 0 0 0 0 0 0 0 0
-0 -0 -0 -0 -0 -0 -0 -0 -0 -0 0 0 0 0 0 0 0 0 0 0 0 0 0 0 0 0 0 0 0 0 0 0 0 0 0 0 0 0 0 0 0 0 0 0 0 0 0
-0 -0 -0 -0 -0 -0 -0 -0 -0 -0 0 0 0 0 0 0 0 0 0 0 0 0 0 0 0 0 0 0 0 0 0 0 0 0 0 0 0 0 0 0 0 0 0 0 0 0 0
-0 -0 -0 -0 -0 -0 -0 -0 -0 -0 0 0 0 0 0 0 0 0 0 0 0 0 0 0 0 0 0 0 0 0 0 0 0 0 0 0 0 0 0 0 0 0 0 0 0 0 0
-0 -0 -0 -0 -0 -0 -0 -0 -0 -0 0 0 0 0 0 0 0 0 0 0 0 0 0 0 0 0 0 0 0 0 0 0 0 0 0 0 0 0 0 0 0 0 0 0 0 0 0
-0 -0 -0 -0 -0 -0 -0 -0 -0 -0 0 0 0 0 0 0 0 0 0 0 0 0 0 0 0 0 0 0 0 0 0 0 0 0 0 0 0 0 0 0 0 0 0 0 0 0 0
-0 -0 -0 -0 -0 -0 -0 -0 -0 -0 0 0 0 0 0 0 0 0 0 0 0 0 0 0 0 0 0 0 0 0 0 0 0 0 0 0 0 0 0 0 0 0 0 0 0 0 0
-0 -0 -0 -0 -0 -0 -0 -0 -0 -0 0 0 0 0 0 0 0 0 0 0 0 0 0 0 0 0 0 0 0 0 0 0 0 0 0 0 0 0 0 0 0 0 0 0 0 0 0
0 -0 -0 -0 -0 -0 -0 -0 -0 -0 0 0 0 0 0 0 0 0 0 0 0 0 0 0 0 0 0 0 0 0 0 0 0 0 0 0 0 0 0 0 0 0 0 0 0 0 0
-0 -0 -0 -0 -0 -0 -0 -0 -0 -0 -0 0 0 0 0 0 0 0 0 0 0 0 0 0 0 0 0 0 0 0 0 0 0 0 0 0 0 0 0 0 0 0 0 0 0 0 0
-0 -0 -0 -0 -0 -0 -0 -0 -0 -0 -0 0 0 0 0 0 0 0 0 0 0 0 0 0 0 0 0 0 0 0 0 0 0 0 0 0 0 0 0 0 0 0 0 0 0 0 0
-0 -0 -0 -0 -0 -0 -0 -0 -0 -0 -0 0 0 0 0 0 0 0 0 0 0 0 0 0 0 0 0 0 0 0 0 0 0 0 0 0 0 0 0 0 0 0 0 0 0 0 0
-0 -0 -0 -0 -0 -0 -0 -0 -0 -0 0 0 -0 -0 0 0 0 0 0 0 0 0 0 0 0 0 0 0 0 0 0 0 0 0 0 0 0 0 0 0 0 0 0 0 0 0 0
-0 -0 -0 -0 -0 -0 -0 0 0 0 -0 -0 -0 0 0 0 0 0 0 0 0 0 0 0 0 0 0 0 0 0 0 0 0 0 0 0 0 0 0 0 0 0 0 0 0 0 0
-0 -0 -0 -0 0 0 0 0 0 0 -0 -0 -0 -0 0 -0 -0 -0 -0 -0 0 0 0 0 -0 0 0 0 0 0 0 0 0 0 0 0 0 0 0 0 0 0 0 0 0 0 0
Wind_Speed_500mb
22 23 23 24 25 26 26 25 24 23 21 21 20 18 17 16 15 14 12 12 12 13 12 11 12 11 10 11 17 6 3 4 11 14 14 16 18 11 6 6 3 9 9 13 31 24 26
24 24 25 26 27 27 26 26 25 25 24 22 19 18 17 15 15 14 11 10 10 11 11 10 10 11 10 8 6 7 2 5 6 10 12 20 11 4 10 7 7 7 14 23 20 27 11
24 25 26 27 28 28 28 27 26 25 24 22 20 17 15 14 13 11 10 9 8 8 8 9 10 12 19 26 7 14 6 2 3 2 7 13 10 8 1 9 7 9 8 12 6 5 6
26 27 28 29 30 30 30 29 28 26 24 21 18 16 14 13 11 7 7 7 6 7 8 9 10 13 17 5 22 21 9 10 9 7 12 10 15 17 8 7 12 8 10 7 10 8 5
29 30 30 31 32 33 33 31 29 27 25 21 16 13 11 11 6 5 6 6 6 6 7 8 9 9 17 12 24 23 22 17 7 14 17 10 6 6 3 9 11 14 1 4 17 29 8
31 32 33 34 34 35 35 34 32 29 24 20 15 10 8 5 4 6 8 7 5 6 8 9 15 11 9 3 12 19 21 24 17 14 11 8 2 5 7 7 11 6 5 4 10 22 60
33 34 36 37 38 38 38 36 33 30 23 18 14 8 5 4 9 10 11 7 1 4 16 18 6 13 21 12 7 9 29 26 18 7 7 7 7 10 17 9 9 4 2 2 26 27 50
35 37 38 39 41 42 41 39 34 29 23 16 12 7 5 9 12 12 10 7 1 4 17 28 36 39 33 30 8 14 21 17 9 8 3 9 11 19 10 8 7 4 6 7 38 53 56
37 39 40 41 42 44 44 42 37 30 22 16 10 8 9 14 13 11 13 12 22 28 7 16 20 24 18 11 11 12 27 18 6 3 4 12 12 3 12 10 11 9 13 9 26 33 59
38 40 42 43 44 46 47 45 40 32 23 16 10 11 15 18 13 16 4 18 24 14 8 10 8 11 21 13 6 16 29 17 1 11 10 10 10 7 9 14 17 7 16 16 22 19 10
40 42 43 45 46 47 48 47 42 34 23 15 8 14 21 26 8 9 10 13 8 4 5 2 7 3 14 17 7 9 21 15 6 5 2 13 15 15 10 7 16 14 18 14 8 8 13
42 44 45 46 47 49 49 48 43 35 23 14 8 18 24 29 13 5 5 6 5 10 7 4 12 9 11 8 4 10 8 9 8 1 5 11 10 4 4 4 6 5 10 14 10 7 4
42 45 47 49 49 51 51 48 44 34 22 12 7 19 28 29 12 6 6 3 9 5 9 4 9 8 8 7 8 9 10 12 6 6 10 11 7 10 7 6 13 11 12 4 4 7 4
44 46 48 50 51 52 53 50 45 33 20 10 6 16 27 31 6 7 2 9 3 7 6 9 8 10 12 8 6 6 7 5 10 6 5 3 5 15 15 7 2 6 8 11 12 10 8
45 47 49 50 52 53 54 54 46 33 18 7 5 9 19 25 13 3 3 6 11 3 7 13 10 7 2 4 13 11 7 3 6 8 5 3 1 6 14 12 6 2 8 3 12 6 9
46 47 49 51 52 53 53 54 49 33 16 6 2 3 6 23 14 7 9 9 6 4 8 7 7 9 5 5 6 8 4 5 4 8 4 4 1 8 11 10 19 9 1 5 6 8 6
48 49 50 52 53 54 52 50 52 33 13 8 3 2 17 22 15 5 6 11 4 4 7 8 3 4 6 5 7 6 3 5 7 7 11 3 4 8 12 13 6 10 8 10 10 5 9
48 49 50 52 54 54 52 47 49 35 8 7 3 4 18 21 6 3 5 5 5 5 16 8 5 3 4 7 8 6 5 4 12 3 5 2 9 7 4 6 9 11 7 5 7 4 7
48 49 50 53 54 56 54 46 44 35 7 3 3 2 8 20 4 3 4 5 7 7 8 9 6 8 13 7 9 4 6 5 9 5 8 6 4 6 13 11 10 13 10 3 10 7 6
49 50 50 54 54 56 56 48 37 28 14 7 2 3 5 7 5 11 6 4 4 11 6 7 6 6 9 9 11 8 5 4 9 8 7 6 7 6 12 5 8 11 17 10 10 8 9
50 50 49 52 53 54 53 51 43 21 19 5 7 2 4 6 13 8 7 6 4 9 15 29 9 10 4 7 6 6 5 4 11 8 6 9 11 17 29 33 39 30 29 29 17 4 9
48 47 47 49 54 57 52 49 48 38 12 11 6 6 14 18 12 12 15 12 6 4 15 10 9 9 6 11 11 14 11 3 3 13 6 8 12 27 22 24 35 34 22 20 19 11 13
45 44 43 49 53 58 57 48 48 49 21 9 13 18 12 32 14 8 11 7 8 6 20 15 3 9 20 13 20 33 25 22 12 7 4 8 13 7 9 25 8 19 7 13 9 10 5
42 41 39 48 56 59 56 51 42 49 39 24 25 20 19 6 11 7 7 15 18 15 7 13 18 6 10 45 46 48 56 49 47 31 10 10 9 6 8 3 6 1 10 15 20 6 5
41 38 34 43 50 63 73 71 55 38 37 32 31 28 15 7 8 24 24 10 22 26 13 9 21 10 9 16 10 11 11 12 9 18 26 13 8 9 8 9 12 12 9 9 5 6 7
41 36 28 37 46 46 55 69 78 57 30 31 39 25 26 16 16 10 6 15 5 7 13 12 18 18 4 9 7 6 3 5 5 3 14 19 16 10 5 9 9 7 3 3 9 3 16
39 33 24 31 38 40 49 53 62 75 57 51 47 27 50 31 41 34 13 7 12 8 0 7 14 12 13 7 7 4 2 2 6 6 8 8 8 9 6 6 2 4 7 19 8 8 13
36 31 22 23 29 36 36 43 48 51 65 61 57 55 61 67 44 44 43 34 17 10 2 11 5 11 8 8 5 2 5 2 8 4 6 6 6 2 5 7 1 12 5 12 10 13 8
33 30 19 13 18 24 30 31 36 35 44 60 67 62 65 63 43 43 46 31 24 19 6 8 3 4 3 8 3 5 7 6 4 3 8 7 6 8 7 9 5 18 22 18 15 13 7
Wind_Direction_500mb
14 12 6 0 354 350 346 344 342 340 334 327 320 314 310 308 300 290 272 258 249 243 246 248 256 268 285 268 257 260 38 84 167 193 212 197 185 179 195 185 264 185 255 279 288 287 240
13 11 5 0 355 350 345 341 339 335 332 328 321 312 309 306 299 288 267 253 251 244 237 238 249 261 259 267 217 180 24 215 209 200 205 199 212 167 275 240 161 214 264 287 297 295 217
15 10 5 1 357 353 347 343 337 333 329 325 320 312 306 304 297 280 257 242 239 232 226 238 249 258 261 238 188 185 210 171 287 288 187 165 242 263 206 291 282 287 307 342 293 334 334
15 11 6 2 358 354 350 346 340 334 329 324 317 309 308 307 296 263 230 225 223 204 209 234 248 266 256 211 216 195 188 204 227 236 255 278 281 273 211 287 0 20 59 41 287 1 28
16 12 7 3 359 355 351 347 342 335 330 323 314 304 304 305 278 220 199 185 183 205 226 237 255 266 268 223 221 223 213 204 228 294 269 262 221 231 286 72 4 8 48 35 336 17 1
16 12 8 4 0 357 353 347 343 338 331 323 312 298 297 281 209 176 163 155 175 215 233 249 250 294 258 261 222 224 218 218 250 289 241 228 164 71 41 93 221 183 103 344 28 70 72
17 13 10 5 1 357 353 348 345 340 332 323 309 288 273 202 160 159 152 142 162 264 243 235 261 250 302 342 223 208 200 212 242 259 168 22 63 236 237 181 161 176 142 11 106 103 68
17 14 9 6 2 358 354 350 346 341 328 319 300 264 225 172 158 155 182 238 296 11 299 274 254 261 267 276 302 234 182 184 166 209 111 18 251 239 219 184 193 219 291 272 83 99 96
16 13 9 5 2 358 356 353 347 341 327 315 292 236 198 180 178 194 230 344 341 318 288 285 238 241 247 207 214 227 196 199 150 149 195 180 235 23 186 215 183 202 219 238 147 96 123
15 12 8 5 2 359 356 354 348 343 329 315 279 215 192 181 185 198 68 341 335 324 49 273 226 239 217 204 262 251 206 195 92 213 236 226 271 250 276 237 150 230 204 188 151 156 181
14 11 7 4 2 360 357 354 350 343 333 317 263 209 193 184 188 134 344 334 311 146 354 123 182 179 188 164 152 59 172 185 186 232 73 257 308 317 323 244 156 199 180 153 140 126 116
14 10 6 4 2 359 357 353 350 344 334 318 254 204 192 195 174 16 21 48 137 41 269 293 168 162 126 168 170 111 104 96 72 12 346 249 282 340 294 7 48 143 83 43 52 83 74
14 10 6 3 1 359 356 354 350 344 334 317 251 204 198 195 160 34 27 79 44 147 322 239 182 143 147 157 58 52 37 25 64 31 2 334 341 315 40 13 14 66 69 6 345 15 225
11 9 6 3 1 358 355 355 352 345 332 307 256 207 205 185 132 38 50 57 206 268 318 342 357 112 167 148 80 64 81 66 24 56 86 61 330 5 334 71 224 51 136 154 201 177 182
9 7 4 2 360 359 356 354 354 348 331 275 256 220 218 198 175 60 101 85 212 272 305 331 333 108 195 202 124 88 64 89 50 30 142 134 317 338 54 23 29 169 63 195 100 50 88
9 7 4 1 359 358 356 354 358 351 336 226 218 256 189 176 176 152 80 224 225 304 340 353 47 34 63 298 104 87 134 316 343 47 181 162 215 26 336 15 26 83 60 76 15 141 174
9 7 4 2 360 357 358 355 356 355 349 194 211 184 150 166 171 133 158 232 224 36 27 39 50 346 39 16 61 54 45 14 351 343 73 106 96 312 36 14 299 346 19 32 106 83 155
9 7 5 4 2 357 359 358 353 359 350 175 204 62 164 174 90 49 174 240 18 344 27 14 88 68 55 57 67 71 128 1 340 295 88 36 121 59 130 34 48 64 30 67 115 142 49
9 8 6 5 5 360 2 4 357 3 6 217 297 1 161 188 158 260 277 57 57 24 21 16 23 39 58 96 101 108 115 347 14 58 145 163 30 91 340 340 22 50 341 341 98 81 46
10 9 8 9 9 5 5 7 1 13 20 356 325 35 54 77 66 143 143 129 106 31 65 4 356 26 82 48 23 136 118 28 22 70 88 93 60 148 193 131 108 63 21 5 84 73 124
11 11 13 16 14 8 9 8 6 1 11 11 29 52 43 8 15 53 62 14 69 14 357 26 33 16 194 117 55 85 78 68 32 19 48 90 68 84 78 88 83 78 59 51 69 45 81
14 13 20 24 22 12 9 9 16 11 348 33 58 51 74 24 8 24 12 18 55 46 22 359 92 342 118 146 177 189 137 116 153 19 49 35 109 98 71 85 88 79 52 51 50 49 88
16 18 28 30 26 25 23 18 16 23 26 72 73 73 89 9 358 55 352 15 354 115 35 66 357 51 45 347 109 108 99 96 95 108 62 85 149 108 148 152 135 54 33 80 77 35 69
19 24 36 35 33 31 29 27 32 30 40 73 94 77 81 8 46 33 13 73 46 25 94 5 33 76 118 103 97 89 76 65 55 30 52 116 105 79 112 216 59 64 97 113 111 130 129
23 29 46 41 41 42 41 41 42 46 45 65 82 90 85 63 3 15 16 39 42 45 30 27 25 34 141 117 54 45 355 36 38 37 28 28 107 73 112 65 116 130 157 171 231 180 169
26 34 57 48 43 37 35 38 40 48 58 65 63 79 97 99 347 333 333 30 41 349 2 4 25 33 101 66 68 111 172 161 47 16 40 32 51 104 101 111 192 195 209 178 148 259 188
26 39 64 53 47 45 39 34 37 42 52 68 64 71 100 91 48 47 35 353 4 0 353 330 347 5 28 44 59 82 49 7 60 51 346 15 16 76 76 104 14 156 328 137 119 220 178
27 40 67 62 50 44 44 40 36 38 42 57 75 79 95 86 60 55 52 40 23 20 70 334 30 0 45 64 93 331 72 77 79 12 82 83 95 85 77 94 98 4 78 142 165 140 139
31 37 55 67 42 38 37 34 35 34 54 68 77 80 84 82 78 65 52 39 35 21 336 16 136 249 141 94 73 90 41 42 137 84 16 36 162 149 139 196 167 72 98 114 115 117 154
Wind_Speed_850mb
22 23 23 24 25 26 26 25 24 23 21 21 20 18 17 16 15 14 12 12 12 13 12 11 12 11 10 11 17 6 3 4 11 14 14 16 18 11 6 6 3 9 9 13 31 24 26
24 24 25 26 27 27 26 26 25 25 24 22 19 18 17 15 15 14 11 10 10 11 11 10 10 11 10 8 6 7 2 5 6 10 12 20 11 4 10 7 7 7 14 23 20 27 11
24 25 26 27 28 28 28 27 26 25 24 22 20 17 15 14 13 11 10 9 8 8 8 9 10 12 19 26 7 14 6 2 3 2 7 13 10 8 1 9 7 9 8 12 6 5 6
26 27 28 29 30 30 30 29 28 26 24 21 18 16 14 13 11 7 7 7 6 7 8 9 10 13 17 5 22 21 9 10 9 7 12 10 15 17 8 7 12 8 10 7 10 8 5
29 30 30 31 32 33 33 31 29 27 25 21 16 13 11 11 6 5 6 6 6 6 7 8 9 9 17 12 24 23 22 17 7 14 17 10 6 6 3 9 11 14 1 4 17 29 8
31 32 33 34 34 35 35 34 32 29 24 20 15 10 8 5 4 6 8 7 5 6 8 9 15 11 9 3 12 19 21 24 17 14 11 8 2 5 7 7 11 6 5 4 10 22 60
33 34 36 37 38 38 38 36 33 30 23 18 14 8 5 4 9 10 11 7 1 4 16 18 6 13 21 12 7 9 29 26 18 7 7 7 7 10 17 9 9 4 2 2 26 27 50
35 37 38 39 41 42 41 39 34 29 23 16 12 7 5 9 12 12 10 7 1 4 17 28 36 39 33 30 8 14 21 17 9 8 3 9 11 19 10 8 7 4 6 7 38 53 56
37 39 40 41 42 44 44 42 37 30 22 16 10 8 9 14 13 11 13 12 22 28 7 16 20 24 18 11 11 12 27 18 6 3 4 12 12 3 12 10 11 9 13 9 26 33 59
38 40 42 43 44 46 47 45 40 32 23 16 10 11 15 18 13 16 4 18 24 14 8 10 8 11 21 13 6 16 29 17 1 11 10 10 10 7 9 14 17 7 16 16 22 19 10
40 42 43 45 46 47 48 47 42 34 23 15 8 14 21 26 8 9 10 13 8 4 5 2 7 3 14 17 7 9 21 15 6 5 2 13 15 15 10 7 16 14 18 14 8 8 13
42 44 45 46 47 49 49 48 43 35 23 14 8 18 24 29 13 5 5 6 5 10 7 4 12 9 11 8 4 10 8 9 8 1 5 11 10 4 4 4 6 5 10 14 10 7 4
42 45 47 49 49 51 51 48 44 34 22 12 7 19 28 29 12 6 6 3 9 5 9 4 9 8 8 7 8 9 10 12 6 6 10 11 7 10 7 6 13 11 12 4 4 7 4
44 46 48 50 51 52 53 50 45 33 20 10 6 16 27 31 6 7 2 9 3 7 6 9 8 10 12 8 6 6 7 5 10 6 5 3 5 15 15 7 2 6 8 11 12 10 8
45 47 49 50 52 53 54 54 46 33 18 7 5 9 19 25 13 3 3 6 11 3 7 13 10 7 2 4 13 11 7 3 6 8 5 3 1 6 14 12 6 2 8 3 12 6 9
46 47 49 51 52 53 53 54 49 33 16 6 2 3 6 23 14 7 9 9 6 4 8 7 7 9 5 5 6 8 4 5 4 8 4 4 1 8 11 10 19 9 1 5 6 8 6
48 49 50 52 53 54 52 50 52 33 13 8 3 2 17 22 15 5 6 11 4 4 7 8 3 4 6 5 7 6 3 5 7 7 11 3 4 8 12 13 6 10 8 10 10 5 9
48 49 50 52 54 54 52 47 49 35 8 7 3 4 18 21 6 3 5 5 5 5 16 8 5 3 4 7 8 6 5 4 12 3 5 2 9 7 4 6 9 11 7 5 7 4 7
48 49 50 53 54 56 54 46 44 35 7 3 3 2 8 20 4 3 4 5 7 7 8 9 6 8 13 7 9 4 6 5 9 5 8 6 4 6 13 11 10 13 10 3 10 7 6
49 50 50 54 54 56 56 48 37 28 14 7 2 3 5 7 5 11 6 4 4 11 6 7 6 6 9 9 11 8 5 4 9 8 7 6 7 6 12 5 8 11 17 10 10 8 9
50 50 49 52 53 54 53 51 43 21 19 5 7 2 4 6 13 8 7 6 4 9 15 29 9 10 4 7 6 6 5 4 11 8 6 9 11 17 29 33 39 30 29 29 17 4 9
48 47 47 49 54 57 52 49 48 38 12 11 6 6 14 18 12 12 15 12 6 4 15 10 9 9 6 11 11 14 11 3 3 13 6 8 12 27 22 24 35 34 22 20 19 11 13
45 44 43 49 53 58 57 48 48 49 21 9 13 18 12 32 14 8 11 7 8 6 20 15 3 9 20 13 20 33 25 22 12 7 4 8 13 7 9 25 8 19 7 13 9 10 5
42 41 39 48 56 59 56 51 42 49 39 24 25 20 19 6 11 7 7 15 18 15 7 13 18 6 10 45 46 48 56 49 47 31 10 10 9 6 8 3 6 1 10 15 20 6 5
41 38 34 43 50 63 73 71 55 38 37 32 31 28 15 7 8 24 24 10 22 26 13 9 21 10 9 16 10 11 11 12 9 18 26 13 8 9 8 9 12 12 9 9 5 6 7
41 36 28 37 46 46 55 69 78 57 30 31 39 25 26 16 16 10 6 15 5 7 13 12 18 18 4 9 7 6 3 5 5 3 14 19 16 10 5 9 9 7 3 3 9 3 16
39 33 24 31 38 40 49 53 62 75 57 51 47 27 50 31 41 34 13 7 12 8 0 7 14 12 13 7 7 4 2 2 6 6 8 8 8 9 6 6 2 4 7 19 8 8 13
36 31 22 23 29 36 36 43 48 51 65 61 57 55 61 67 44 44 43 34 17 10 2 11 5 11 8 8 5 2 5 2 8 4 6 6 6 2 5 7 1 12 5 12 10 13 8
33 30 19 13 18 24 30 31 36 35 44 60 67 62 65 63 43 43 46 31 24 19 6 8 3 4 3 8 3 5 7 6 4 3 8 7 6 8 7 9 5 18 22 18 15 13 7
Wind_Direction_850mb
14 12 6 0 354 350 346 344 342 340 334 327 320 314 310 308 300 290 272 258 249 243 246 248 256 268 285 268 257 260 38 84 167 193 212 197 185 179 195 185 264 185 255 279 288 287 240
13 11 5 0 355 350 345 341 339 335 332 328 321 312 309 306 299 288 267 253 251 244 237 238 249 261 259 267 217 180 24 215 209 200 205 199 212 167 275 240 161 214 264 287 297 295 217
15 10 5 1 357 353 347 343 337 333 329 325 320 312 306 304 297 280 257 242 239 232 226 238 249 258 261 238 188 185 210 171 287 288 187 165 242 263 206 291 282 287 307 342 293 334 334
15 11 6 2 358 354 350 346 340 334 329 324 317 309 308 307 296 263 230 225 223 204 209 234 248 266 256 211 216 195 188 204 227 236 255 278 281 273 211 287 0 20 59 41 287 1 28
16 12 7 3 359 355 351 347 342 335 330 323 314 304 304 305 278 220 199 185 183 205 226 237 255 266 268 223 221 223 213 204 228 294 269 262 221 231 286 72 4 8 48 35 336 17 1
16 12 8 4 0 357 353 347 343 338 331 323 312 298 297 281 209 176 163 155 175 215 233 249 250 294 258 261 222 224 218 218 250 289 241 228 164 71 41 93 221 183 103 344 28 70 72
17 13 10 5 1 357 353 348 345 340 332 323 309 288 273 202 160 159 152 142 162 264 243 235 261 250 302 342 223 208 200 212 242 259 168 22 63 236 237 181 161 176 142 11 106 103 68
17 14 9 6 2 358 354 350 346 341 328 319 300 264 225 172 158 155 182 238 296 11 299 274 254 261 267 276 302 234 182 184 166 209 111 18 251 239 219 184 193 219 291 272 83 99 96
16 13 9 5 2 358 356 353 347 341 327 315 292 236 198 180 178 194 230 344 341 318 288 285 238 241 247 207 214 227 196 199 150 149 195 180 235 23 186 215 183 202 219 238 147 96 123
15 12 8 5 2 359 356 354 348 343 329 315 279 215 192 181 185 198 68 341 335 324 49 273 226 239 217 204 262 251 206 195 92 213 236 226 271 250 276 237 150 230 204 188 151 156 181
14 11 7 4 2 360 357 354 350 343 333 317 263 209 193 184 188 134 344 334 311 146 354 123 182 179 188 164 152 59 172 185 186 232 73 257 308 317 323 244 156 199 180 153 140 126 116
14 10 6 4 2 359 357 353 350 344 334 318 254 204 192 195 174 16 21 48 137 41 269 293 168 162 126 168 170 111 104 96 72 12 346 249 282 340 294 7 48 143 83 43 52 83 74
14 10 6 3 1 359 356 354 350 344 334 317 251 204 198 195 160 34 27 79 44 147 322 239 182 143 147 157 58 52 37 25 64 31 2 334 341 315 40 13 14 66 69 6 345 15 225
11 9 6 3 1 358 355 355 352 345 332 307 256 207 205 185 132 38 50 57 206 268 318 342 357 112 167 148 80 64 81 66 24 56 86 61 330 5 334 71 224 51 136 154 201 177 182
9 7 4 2 360 359 356 354 354 348 331 275 256 220 218 198 175 60 101 85 212 272 305 331 333 108 195 202 124 88 64 89 50 30 142 134 317 338 54 23 29 169 63 195 100 50 88
9 7 4 1 359 358 356 354 358 351 336 226 218 256 189 176 176 152 80 224 225 304 340 353 47 34 63 298 104 87 134 316 343 47 181 162 215 26 336 15 26 83 60 76 15 141 174
9 7 4 2 360 357 358 355 356 355 349 194 211 184 150 166 171 133 158 232 224 36 27 39 50 346 39 16 61 54 45 14 351 343 73 106 96 312 36 14 299 346 19 32 106 83 155
9 7 5 4 2 357 359 358 353 359 350 175 204 62 164 174 90 49 174 240 18 344 27 14 88 68 55 57 67 71 128 1 340 295 88 36 121 59 130 34 48 64 30 67 115 142 49
9 8 6 5 5 360 2 4 357 3 6 217 297 1 161 188 158 260 277 57 57 24 21 16 23 39 58 96 101 108 115 347 14 58 145 163 30 91 340 340 22 50 341 341 98 81 46
10 9 8 9 9 5 5 7 1 13 20 356 325 35 54 77 66 143 143 129 106 31 65 4 356 26 82 48 23 136 118 28 22 70 88 93 60 148 193 131 108 63 21 5 84 73 124
11 11 13 16 14 8 9 8 6 1 11 11 29 52 43 8 15 53 62 14 69 14 357 26 33 16 194 117 55 85 78 68 32 19 48 90 68 84 78 88 83 78 59 51 69 45 81
14 13 20 24 22 12 9 9 16 11 348 33 58 51 74 24 8 24 12 18 55 46 22 359 92 342 118 146 177 189 137 116 153 19 49 35 109 98 71 85 88 79 52 51 50 49 88
16 18 28 30 26 25 23 18 16 23 26 72 73 73 89 9 358 55 352 15 354 115 35 66 357 51 45 347 109 108 99 96 95 108 62 85 149 108 148 152 135 54 33 80 77 35 69
19 24 36 35 33 31 29 27 32 30 40 73 94 77 81 8 46 33 13 73 46 25 94 5 33 76 118 103 97 89 76 65 55 30 52 116 105 79 112 216 59 64 97 113 111 130 129
23 29 46 41 41 42 41 41 42 46 45 65 82 90 85 63 3 15 16 39 42 45 30 27 25 34 141 117 54 45 355 36 38 37 28 28 107 73 112 65 116 130 157 171 231 180 169
26 34 57 48 43 37 35 38 40 48 58 65 63 79 97 99 347 333 333 30 41 349 2 4 25 33 101 66 68 111 172 161 47 16 40 32 51 104 101 111 192 195 209 178 148 259 188
26 39 64 53 47 45 39 34 37 42 52 68 64 71 100 91 48 47 35 353 4 0 353 330 347 5 28 44 59 82 49 7 60 51 346 15 16 76 76 104 14 156 328 137 119 220 178
27 40 67 62 50 44 44 40 36 38 42 57 75 79 95 86 60 55 52 40 23 20 70 334 30 0 45 64 93 331 72 77 79 12 82 83 95 85 77 94 98 4 78 142 165 140 139
31 37 55 67 42 38 37 34 35 34 54 68 77 80 84 82 78 65 52 39 35 21 336 16 136 249 141 94 73 90 41 42 137 84 16 36 162 149 139 196 167 72 98 114 115 117 154